[[{"header":{"parameterUnit":"m.s-1","parameterCategory":1,"la1":30.2991,"la2":30.254,"lo1":-89.0895,"lo2":-89.0444,"dy":0.0017,"dx":0.0017,"nx":28,"ny":28,"refTime":"2025-04-06T09:00:00:Z","depth":0,"parameterNumber":2,"parameterNumberName":"U-component_of_WINDS"},"data":[0,0,0,0,0,0,0,0,0,0,0,0,0,0,0,0,0,0,0,0,0,0,0,0,0,0,0,0,0,0,0,0,0,0,0,0,0,0,0,0,0,0,0,0,0,0,0,0,0,0,0,0,0,0,0,0,0,0,1.5927,1.5926,0,1.5873,1.5873,1.5872,1.5872,1.5872,1.5873,1.5874,1.5813,1.5811,1.5809,0,0,0,0,0,0,0,0,0,0,0,0,0,1.6024,1.6022,1.5927,1.5926,1.5926,1.5874,1.5873,1.5872,1.5872,1.5872,1.5873,1.5874,1.5814,1.5811,1.5808,0,0,0,0,0,0,0,0,0,0,0,0,0,1.5977,1.6022,1.5927,1.5919,1.5918,1.5874,1.5873,1.5872,1.5871,1.5872,1.5873,1.5874,1.5815,1.5811,1.5808,1.5766,0,0,1.5798,1.5796,0,0,0,0,0,0,0,0,1.598,1.5974,1.5921,1.592,1.5918,1.588,1.5885,1.5836,1.5871,1.5889,1.5874,1.5875,1.5834,1.5829,1.5817,1.5763,1.5761,1.5797,1.5795,1.5794,1.5793,0,0,0,0,0,0,0,1.5983,1.5976,1.5906,1.592,1.5919,1.5917,1.5911,1.5876,1.5856,1.5887,1.5887,1.5881,1.5834,1.582,1.5815,1.576,1.5798,1.5795,1.5792,1.5791,1.5669,1.5668,0,0,0,0,0,0,1.5989,1.5979,1.5907,1.5904,1.5952,1.5914,1.5908,1.5891,1.5857,1.5852,1.588,1.5881,1.5825,1.5819,1.5813,1.5761,1.5794,1.5791,1.5789,1.567,1.5669,1.5667,0,0,0,0,0,0,1.5991,1.5982,1.5909,1.5941,1.5932,1.5912,1.5893,1.589,1.5876,1.5851,1.5847,1.587,1.5826,1.5818,1.5778,1.5759,1.5789,1.5786,1.5672,1.567,1.5668,1.5657,0,0,0,0,0,0,1.5994,1.5983,1.5968,1.5941,1.593,1.5876,1.5892,1.5888,1.5871,1.5872,1.5841,1.5837,1.5826,1.5783,1.5775,1.5755,1.5783,1.5673,1.5671,1.5669,1.5659,1.5655,1.5651,0,0,0,0,0,1.5997,1.5965,1.5967,1.5958,1.5911,1.5875,1.5869,1.5859,1.587,1.5853,1.5838,1.5838,1.5763,1.5779,1.577,1.5748,1.5674,1.5671,1.5669,1.566,1.5655,1.5651,0,0,0,0,0,0,1.5988,1.5962,1.5963,1.5922,1.5901,1.5875,1.5854,1.5855,1.5828,1.583,1.5818,1.5811,1.5771,1.5756,1.5774,1.5706,1.572,1.5715,1.5716,1.5712,1.5708,1.5711,1.5781,0,0,0,0,0,1.5982,1.5957,1.5935,1.5901,1.589,1.5875,1.5859,1.5853,1.583,1.582,1.5802,1.5778,1.5749,1.573,1.5702,1.5658,1.565,1.5638,1.5635,1.5632,1.5627,1.5601,1.5595,1.5659,1.5659,1.5659,0,0,1.5967,1.595,1.5935,1.5898,1.5882,1.5854,1.5867,1.5837,1.5816,1.5815,1.5777,1.5763,1.5735,1.5693,1.5673,1.5679,1.5609,1.5629,1.5626,1.5623,1.5598,1.5592,1.5587,1.5657,1.5657,1.5657,0,0,1.5927,1.5913,1.5882,1.5866,1.5841,1.5831,1.5824,1.5799,1.579,1.5751,1.575,1.5725,1.5676,1.5656,1.564,1.5595,1.5593,1.5586,1.5565,1.5541,1.5536,1.5531,1.5513,1.5507,1.5582,1.5582,1.5582,0,1.5912,1.5872,1.5866,1.5837,1.582,1.5822,1.579,1.5774,1.574,1.5728,1.5737,1.5676,1.5657,1.561,1.5599,1.5587,1.5576,1.5588,1.5537,1.5533,1.5528,1.5511,1.5505,1.5581,1.5581,1.5581,1.5581,0,1.5854,1.5826,1.5805,1.5775,1.5756,1.5726,1.5714,1.5696,1.5693,1.5682,1.5643,1.5621,1.5589,1.5578,1.5574,1.553,1.5534,1.5541,1.5553,1.5522,1.5505,1.5498,1.5579,1.558,1.558,1.558,0,0,1.5802,1.5772,1.5764,1.575,1.5724,1.5702,1.5672,1.5643,1.5626,1.5604,1.5577,1.5537,1.5543,1.5524,1.5518,1.5497,1.5461,1.5505,1.5504,1.5496,1.5409,1.5403,1.5395,1.5461,1.546,1.5459,1.5411,0,1.5758,1.5705,1.57,1.5653,1.5626,1.5629,1.5602,1.5582,1.5572,1.5547,1.5535,1.5506,1.5517,1.5505,1.5485,1.547,1.5443,1.5473,1.5433,1.5432,1.5437,1.5387,1.538,1.5335,1.5404,1.5403,1.5403,0,1.5697,1.5675,1.5626,1.5604,1.5593,1.5569,1.5542,1.5519,1.5497,1.5491,1.5472,1.5469,1.5436,1.5454,1.5408,1.5429,1.5413,1.5403,1.5401,1.5394,1.5413,1.5376,1.5321,1.5313,1.5393,1.5393,1.5394,0,1.5662,1.5621,1.5585,1.5574,1.5548,1.5532,1.552,1.5499,1.5482,1.5458,1.5447,1.5419,1.5403,1.5381,1.537,1.5384,1.5325,1.5341,1.5316,1.5316,1.53,1.5301,1.5239,1.5295,1.5295,1.5296,1.5296,0,1.5611,1.558,1.5569,1.5547,1.5513,1.5507,1.5472,1.5461,1.5443,1.5418,1.5419,1.5394,1.5384,1.5358,1.535,1.5312,1.5305,1.5298,1.5295,1.5296,1.5296,1.5282,1.5284,1.5294,1.5294,1.5294,1.5295,0,1.5564,1.5556,1.5518,1.5498,1.5492,1.5467,1.5449,1.5427,1.5419,1.5387,1.5379,1.5364,1.5333,1.5322,1.5285,1.5279,1.5235,1.5236,1.5242,1.5241,1.5216,1.5217,1.514,1.5129,1.5195,1.5195,1.5194,0,1.553,1.5506,1.5485,1.5469,1.5457,1.5432,1.5415,1.5409,1.5391,1.5366,1.5346,1.5317,1.5293,1.5244,1.5228,1.52,1.5199,1.5174,1.5194,1.5196,1.5195,1.5196,1.5192,1.5169,1.5168,1.5168,1.5167,0,1.547,1.5468,1.5444,1.542,1.5401,1.5381,1.5361,1.5348,1.5339,1.5319,1.529,1.5271,1.5234,1.5204,1.5175,1.5161,1.5162,1.5162,1.5154,1.5152,1.5156,1.5151,1.5229,1.5162,1.5163,1.5163,1.5163,1.5164,1.5426,1.5405,1.5387,1.5361,1.5347,1.5329,1.5308,1.5297,1.5273,1.5243,1.5242,1.5209,1.5188,1.515,1.5135,1.5109,1.5115,1.5104,1.5101,1.5097,1.5094,1.5164,1.5104,1.5104,1.5104,1.5104,1.5104,0,1.5364,1.5353,1.533,1.5303,1.5283,1.529,1.5269,1.525,1.5222,1.5204,1.5181,1.5146,1.5118,1.5102,1.5073,1.5055,1.5054,1.5047,1.5046,1.5043,1.5092,1.51,1.5048,1.5048,1.5048,1.5048,1.5048,1.5048,1.5328,1.5293,1.5289,1.5247,1.5236,1.5205,1.5192,1.5176,1.5161,1.5123,1.51,1.5091,1.5073,1.5043,1.5017,1.5013,1.5001,1.4993,1.4989,1.5034,1.5039,1.5045,1.5053,1.4991,1.4991,1.4942,1.4941,1.4941]},{"header":{"parameterUnit":"m.s-1","parameterCategory":1,"la1":30.2991,"la2":30.254,"lo1":-89.0895,"lo2":-89.0444,"dy":0.0017,"dx":0.0017,"nx":28,"ny":28,"refTime":"2025-04-06T09:00:00:Z","depth":0,"parameterNumber":3,"parameterNumberName":"V-component_of_WINDS"},"data":[0,0,0,0,0,0,0,0,0,0,0,0,0,0,0,0,0,0,0,0,0,0,0,0,0,0,0,0,0,0,0,0,0,0,0,0,0,0,0,0,0,0,0,0,0,0,0,0,0,0,0,0,0,0,0,0,0,0,-5.755,-5.7552,0,-5.7757,-5.7759,-5.7762,-5.7693,-5.7688,-5.7684,-5.768,-5.789,-5.7899,-5.7909,0,0,0,0,0,0,0,0,0,0,0,0,0,-5.7092,-5.7101,-5.755,-5.7552,-5.7555,-5.7757,-5.7759,-5.7762,-5.7694,-5.7688,-5.7683,-5.7678,-5.7886,-5.7898,-5.791,0,0,0,0,0,0,0,0,0,0,0,0,0,-5.7294,-5.7104,-5.7549,-5.7545,-5.7547,-5.7756,-5.776,-5.7763,-5.7695,-5.7688,-5.7681,-5.7675,-5.7883,-5.7897,-5.7911,-5.8136,0,0,-5.7956,-5.7962,0,0,0,0,0,0,0,0,-5.7283,-5.7311,-5.7543,-5.7546,-5.7548,-5.7692,-5.7675,-5.7888,-5.7697,-5.7639,-5.768,-5.7672,-5.7829,-5.7848,-5.7901,-5.8146,-5.8155,-5.7957,-5.7966,-5.7973,-5.7977,0,0,0,0,0,0,0,-5.7269,-5.7302,-5.7632,-5.7547,-5.755,-5.7532,-5.7553,-5.7715,-5.7769,-5.7643,-5.7639,-5.7664,-5.7829,-5.7888,-5.7906,-5.8158,-5.7957,-5.797,-5.7979,-5.7985,-5.8597,-5.8604,0,0,0,0,0,0,-5.7254,-5.7291,-5.7625,-5.7638,-5.7396,-5.7546,-5.757,-5.7653,-5.7767,-5.7778,-5.767,-5.766,-5.7866,-5.7889,-5.7913,-5.8184,-5.7972,-5.7986,-5.7995,-5.859,-5.8599,-5.8607,0,0,0,0,0,0,-5.7244,-5.7285,-5.7617,-5.7463,-5.7504,-5.7561,-5.7655,-5.766,-5.7719,-5.7787,-5.7796,-5.772,-5.7861,-5.7892,-5.8081,-5.819,-5.7993,-5.8006,-5.8581,-5.8592,-5.8603,-5.8727,0,0,0,0,0,0,-5.7232,-5.7282,-5.7368,-5.7466,-5.7513,-5.7783,-5.7662,-5.7669,-5.7744,-5.7734,-5.7836,-5.7847,-5.7858,-5.806,-5.8096,-5.8207,-5.8018,-5.8571,-5.8586,-5.8599,-5.8714,-5.8741,-5.8765,0,0,0,0,0,-5.7216,-5.7395,-5.7373,-5.7414,-5.7623,-5.7789,-5.7816,-5.7827,-5.7753,-5.7841,-5.7885,-5.7844,-5.8172,-5.808,-5.812,-5.8237,-5.8565,-5.8582,-5.8598,-5.8702,-5.8736,-5.8765,0,0,0,0,0,0,-5.7309,-5.7408,-5.7385,-5.7601,-5.7688,-5.7778,-5.7888,-5.7862,-5.797,-5.7956,-5.7963,-5.7987,-5.8181,-5.8227,-5.8123,-5.846,-5.8357,-5.8383,-5.8423,-5.8455,-5.8481,-5.8465,-5.803,0,0,0,0,0,-5.7354,-5.7483,-5.7562,-5.7745,-5.779,-5.7832,-5.7905,-5.7905,-5.7994,-5.803,-5.8088,-5.8176,-5.8298,-5.8379,-5.8496,-5.872,-5.8741,-5.882,-5.8845,-5.8866,-5.8888,-5.9009,-5.9045,-5.8662,-5.8662,-5.8662,0,0,-5.745,-5.752,-5.7601,-5.7766,-5.7832,-5.7964,-5.7863,-5.8006,-5.8104,-5.8052,-5.8234,-5.828,-5.8378,-5.8585,-5.8679,-5.8629,-5.8998,-5.8887,-5.8903,-5.8915,-5.903,-5.9066,-5.9099,-5.8673,-5.8671,-5.867,0,0,-5.7692,-5.7758,-5.7918,-5.7987,-5.809,-5.8116,-5.8155,-5.8249,-5.8277,-5.846,-5.8424,-5.8539,-5.8751,-5.8822,-5.8886,-5.9154,-5.912,-5.9192,-5.9326,-5.9444,-5.9474,-5.9501,-5.9596,-5.963,-5.9213,-5.9214,-5.9214,0,-5.7798,-5.7996,-5.8003,-5.815,-5.8223,-5.8183,-5.8344,-5.841,-5.8546,-5.8597,-5.8539,-5.8804,-5.8867,-5.909,-5.9155,-5.9208,-5.9252,-5.918,-5.9469,-5.9496,-5.9521,-5.9612,-5.9648,-5.9222,-5.9221,-5.922,-5.9219,0,-5.8121,-5.8259,-5.8375,-5.8507,-5.8594,-5.8747,-5.8777,-5.8863,-5.8855,-5.8888,-5.9074,-5.9148,-5.9279,-5.9331,-5.9326,-5.9554,-5.952,-5.9466,-5.9363,-5.9565,-5.9651,-5.9686,-5.9233,-5.923,-5.9228,-5.9226,0,0,-5.8429,-5.8563,-5.8605,-5.8664,-5.8774,-5.888,-5.9031,-5.9159,-5.9233,-5.9327,-5.9453,-5.9633,-5.9583,-5.9656,-5.9657,-5.9761,-5.9968,-5.9694,-5.9696,-5.9742,-6.0223,-6.0263,-6.0304,-5.9946,-5.9952,-5.9958,-6.0215,0,-5.868,-5.8946,-5.8956,-5.9199,-5.9325,-5.9288,-5.9419,-5.95,-5.9534,-5.9645,-5.9682,-5.9809,-5.9734,-5.9778,-5.9878,-5.9921,-6.0064,-5.9903,-6.0062,-6.0068,-6.004,-6.0348,-6.0392,-6.0631,-6.0248,-6.0254,-6.0258,0,-5.9009,-5.9114,-5.9369,-5.946,-5.9513,-5.9631,-5.9749,-5.9856,-5.9947,-5.9964,-6.0045,-6.0031,-6.0184,-6.0076,-6.0286,-6.0176,-6.0242,-6.0272,-6.0282,-6.0298,-6.0176,-6.0373,-6.0708,-6.0744,-6.0311,-6.0307,-6.0303,0,-5.9208,-5.9413,-5.9592,-5.9643,-5.9754,-5.9837,-5.9887,-5.9971,-6.0047,-6.015,-6.0199,-6.0318,-6.0384,-6.0476,-6.0494,-6.0413,-6.0705,-6.0598,-6.0723,-6.0723,-6.0786,-6.0782,-6.1137,-6.0828,-6.0828,-6.0827,-6.0826,0,-5.9487,-5.9645,-5.9682,-5.9793,-5.9967,-5.9977,-6.015,-6.0193,-6.0268,-6.0385,-6.0359,-6.0469,-6.0486,-6.06,-6.0615,-6.0787,-6.0817,-6.0834,-6.0837,-6.0837,-6.0835,-6.0881,-6.0865,-6.0837,-6.0835,-6.0833,-6.0831,0,-5.9739,-5.9771,-5.9964,-6.0052,-6.0078,-6.0203,-6.0278,-6.0383,-6.0413,-6.0562,-6.0597,-6.0645,-6.0778,-6.0805,-6.0962,-6.0972,-6.1176,-6.1162,-6.1146,-6.1145,-6.1268,-6.1257,-6.1666,-6.1719,-6.1375,-6.1378,-6.1381,0,-5.9916,-6.0036,-6.0138,-6.0215,-6.0269,-6.0393,-6.047,-6.0484,-6.0566,-6.0677,-6.0769,-6.0898,-6.1003,-6.1217,-6.1265,-6.1385,-6.1373,-6.1508,-6.1391,-6.1388,-6.1375,-6.1368,-6.138,-6.1531,-6.1535,-6.1538,-6.154,0,-6.0226,-6.0236,-6.0349,-6.0468,-6.0562,-6.0656,-6.0745,-6.081,-6.0835,-6.0928,-6.1064,-6.1145,-6.1305,-6.1434,-6.1554,-6.1604,-6.1577,-6.1576,-6.1612,-6.1614,-6.16,-6.1609,-6.1208,-6.1567,-6.1564,-6.1562,-6.1561,-6.156,-6.0446,-6.0551,-6.0639,-6.0766,-6.0834,-6.0918,-6.1021,-6.1064,-6.1178,-6.131,-6.1311,-6.1459,-6.1545,-6.1703,-6.176,-6.1875,-6.1833,-6.1884,-6.1897,-6.1909,-6.1921,-6.1581,-6.1897,-6.1896,-6.1896,-6.1895,-6.1894,0,-6.0755,-6.0809,-6.0926,-6.1052,-6.1152,-6.1117,-6.1214,-6.13,-6.1431,-6.1513,-6.1617,-6.1772,-6.1897,-6.1955,-6.2078,-6.2159,-6.215,-6.2191,-6.2186,-6.2197,-6.1952,-6.1909,-6.2197,-6.2197,-6.2197,-6.2197,-6.2197,-6.2196,-6.0928,-6.1103,-6.1123,-6.1332,-6.1384,-6.153,-6.1588,-6.1665,-6.1731,-6.1906,-6.201,-6.2047,-6.212,-6.2247,-6.236,-6.2374,-6.242,-6.2468,-6.2476,-6.2245,-6.2215,-6.2185,-6.2145,-6.2478,-6.2478,-6.2711,-6.2713,-6.2715]}]]